AirNav   TITAN Aviation Fuels
 
 1208 users online  

0II8 Sutton's Field Airport
Lowell, Indiana, USA

GOING TO LOWELL?


FAA INFORMATION EFFECTIVE 22 APRIL 2021

Location

FAA Identifier: 0II8
Lat/Long: 41-19-29.1260N 087-28-33.1290W
41-19.485433N 087-28.552150W
41.3247572,-87.4758692
(estimated)
Elevation: 740 ft. / 226 m (estimated)
Variation: 01W (1990)
From city: 3 miles NW of LOWELL, IN
Time zone: UTC -5 (UTC -6 during Standard Time)
Zip code: 46356

Airport Operations

Airport use: Private use. Permission required prior to landing
Activation date: 09/1990
Control tower: no
ARTCC: CHICAGO CENTER
FSS: TERRE HAUTE FLIGHT SERVICE STATION
Attendance: UNATNDD
Wind indicator: yes
Segmented circle: no

Airport Communications

WX AWOS-AV at C56 (10 nm W): 119.125 (708-534-5256)
WX AWOS-3 at IGQ (13 nm N): 119.275 (708-895-9526)
WX AWOS-3PT at GYY (18 nm N): 134.575 (219-944-0010)

Nearby radio navigation aids

VOR radial/distance  VOR name  Freq  Var
CGTr157/11.9CHICAGO HEIGHTS VORTAC114.2002E
EONr075/14.6PEOTONE VORTAC113.2002E
OXIr270/37.2KNOX VOR/DME115.6000E

Airport Services

Runway Information

Runway 1/19

Dimensions: 1400 x 100 ft. / 427 x 30 m
Surface: turf, in good condition
RUNWAY 1  RUNWAY 19
Traffic pattern: leftleft
Obstructions: 110 ft. pline, 2390 ft. from runwaynone

Airport Ownership and Management from official FAA records

Ownership: Privately-owned
Owner: MR. DAVID E. SUTTON
12304 W. 165TH AVE.
LOWELL, IN 46356
Phone 219-696-8726
Manager: MR. DAVID E. SUTTON
12304 W. 165TH AVE.
LOWELL, IN 46356
Phone 219-696-8726

Airport Operational Statistics

Aircraft based on the field: 6
Single engine airplanes: 4
Multi engine airplanes: 2
    

Additional Remarks

FOR CD CTC CHICAGO ARTCC AT 630-906-8921.

Instrument Procedures

There are no published instrument procedures at 0II8.

Some nearby airports with instrument procedures:

C56 - Bult Field Airport (10 nm W)
05C - Griffith-Merrillville Airport (12 nm N)
KIGQ - Lansing Municipal Airport (13 nm N)
3HO - Hobart Sky Ranch Airport (17 nm NE)
KGYY - Gary/Chicago International Airport (18 nm N)
 
Loc | Ops | Rwys | IFR | FBO | Links
Com | Nav | Svcs | Stats | Notes
Area around 0II8 (Sutton's Field Airport)
 
Road maps at: MapQuest Bing Google
 
Aerial photo
No photo
 
Sectional chart

 
Airport distance calculator
Flying to Sutton's Field Airport? Find the distance to fly.

From to 0II8

Sunrise and sunset
Times for 05-May-2021
 Local
(UTC-5)
 Zulu
(UTC)
Morning civil twilight05:1310:13
Sunrise05:4310:43
Sunset19:5000:50
Evening civil twilight20:2101:21

Current date and time
Zulu (UTC)  05-May-2021 22:28:46
Local (UTC-5)  05-May-2021 17:28:46
 
METAR
KIGQ 
13nm N 
052215Z AUTO 06010KT 10SM CLR 12/00 A3014 RMK AO2 T01200000
KGYY 
18nm N 
052145Z 07006KT 10SM CLR 11/02 A3015
KVPZ 
23nm E 
052156Z AUTO 02009KT 10SM CLR 13/M02 A3014 RMK AO2 SLP210 T01281022
KIKK 
23nm SW 
052215Z AUTO 04008KT 10SM CLR 17/04 A3012 RMK AO2 T01690041
TAF
KGYY 
18nm N 
051721Z 0518/0618 03011KT P6SM FEW050 SCT100 FM060100 10005KT P6SM BKN150 FM060900 17007KT P6SM SCT070 OVC150 FM061200 17004KT P6SM -SHRA BKN070 FM061500 11006KT 6SM -SHRA SCT010 OVC015
NOTAMs
Click for the latest NOTAMs
NOTAMs are issued by the DoD/FAA and will open in a separate window not controlled by AirNav.

 

 
 

Would you like to see your business listed on this page?

 If your business provides an interesting product or service to pilots, flight crews, aircraft, or users of the Sutton's Field Airport, you should consider listing it here.  To start the listing process, click on the button below
 
Add a business
 

Other Pages about Sutton's Field Airport

Update a link
 
Copyright © AirNav, LLC. All rights reserved. Privacy Policy  Contact